This is the latest recevied weather packets stored in our database for station/object PD2BVG. If no packets are shown the sender has not sent any weather packets the latest 1 day(s).
| Time | Temp. | Humidity | Pressure | Rain* | Wind** | Luminosity | Snow |
|---|---|---|---|---|---|---|---|
| 1778002416 | 12.78° C | 75% | 1010.3 hPa | 0 mm | 3.58 m/s, 351° | 148 W/m² | - |
| 1778002354 | 12.78° C | 76% | 1010.4 hPa | 0 mm | 4.47 m/s, 327° | 155 W/m² | - |
| 1778002293 | 12.78° C | 75% | 1010.2 hPa | 0 mm | 5.36 m/s, 0° | 162 W/m² | - |
| 1778002233 | 12.78° C | 75% | 1010.3 hPa | 0 mm | 5.81 m/s, 357° | 164 W/m² | - |
| 1778002173 | 12.78° C | 75% | 1010.3 hPa | 0 mm | 5.81 m/s, 350° | 162 W/m² | - |
| 1778002113 | 12.78° C | 75% | 1010.3 hPa | 0 mm | 5.81 m/s, 345° | 160 W/m² | - |
| 1778002053 | 12.78° C | 75% | 1010.3 hPa | 0 mm | 4.92 m/s, 357° | 157 W/m² | - |
| 1778001993 | 12.78° C | 75% | 1010.2 hPa | 0 mm | 4.92 m/s, 340° | 151 W/m² | - |
| 1778001935 | 12.78° C | 75% | 1010.2 hPa | 0 mm | 4.92 m/s, 0° | 141 W/m² | - |
| 1778001874 | 12.78° C | 74% | 1010.4 hPa | 0 mm | 4.92 m/s, 309° | 139 W/m² | - |
| 1778001813 | 13.33° C | 75% | 1010.4 hPa | 0 mm | 4.92 m/s, 338° | 144 W/m² | - |
| 1778001753 | 13.33° C | 75% | 1010.3 hPa | 0 mm | 4.02 m/s, 358° | 144 W/m² | - |
| 1778001694 | 13.33° C | 75% | 1010.3 hPa | 0 mm | 3.58 m/s, 4° | 160 W/m² | - |
| 1778001631 | 13.33° C | 74% | 1010.2 hPa | 0 mm | 4.47 m/s, 336° | 181 W/m² | - |
| 1778001572 | 13.33° C | 74% | 1010.2 hPa | 0 mm | 4.92 m/s, 8° | 222 W/m² | - |
| 1778001511 | 13.33° C | 74% | 1010.3 hPa | 0 mm | 4.47 m/s, 354° | 227 W/m² | - |
| 1778001451 | 13.33° C | 74% | 1010.4 hPa | 0 mm | 4.02 m/s, 330° | 229 W/m² | - |
| 1778001391 | 13.33° C | 74% | 1010.4 hPa | 0 mm | 4.47 m/s, 0° | 230 W/m² | - |
| 1778001331 | 13.33° C | 74% | 1010.4 hPa | 0 mm | 4.92 m/s, 340° | 239 W/m² | - |
| 1778001271 | 13.33° C | 74% | 1010.4 hPa | 0 mm | 4.92 m/s, 314° | 246 W/m² | - |
| 1778001211 | 13.33° C | 75% | 1010.3 hPa | 0 mm | 4.92 m/s, 27° | 257 W/m² | - |
| 1778001152 | 13.33° C | 75% | 1010.3 hPa | 0 mm | 4.92 m/s, 354° | 264 W/m² | - |
| 1778001092 | 13.33° C | 74% | 1010.3 hPa | 0 mm | 4.47 m/s, 354° | 271 W/m² | - |
| 1778001031 | 13.33° C | 74% | 1010.3 hPa | 0 mm | 4.92 m/s, 0° | 273 W/m² | - |
| 1778000972 | 13.33° C | 75% | 1010.3 hPa | 0 mm | 4.92 m/s, 331° | 266 W/m² | - |
* Rain latest hour (hover to see other rain measurements)
** Current wind speed in m/s (hover to see current wind gust speed)